Other Surface Observations
Issued by NWS

Home | Current Version | Previous Version | Text Only | Print | Product List | Glossary On
Versions: 1 2 3 4 5 6 7 8 9 10 11 12 13 14 15 16 17 18 19 20 21 22 23 24 25 26 27 28 29 30 31 32 33 34 35 36 37 38 39 40 41 42 43 44 45 46 47 48 49 50
000
SXUS52 KTAE 290205
OSOTAE
OSOTAE
North Florida/South Alabama/Southwest Georgia Weather Roundup
National Weather Service Tallahassee Florida
1000 PM EDT SAT MAY 28 2016

Note: "fair" indicates few or no clouds below 12,000 feet with no
significant weather and/or obstructions to visibility.

!FLZ017-115-028-034-025-290300
...North Florida...

CITY           SKY/WX    TMP DP  RH WIND       PRES   REMARKS
TALLAHASSEE    PTCLDY    80  67  64 W6        30.04R
APALACHICOLA   PTCLDY    76  73  91 NW3       30.06S
PERRY          PTCLDY    77  72  84 SW5       30.05R
CROSS CITY       N/A     78  70  76 CALM      30.03R
JACKSONVILLE   PTCLDY    72  68  87 N7        30.04R
$$

!FLZ112-006-005-002-011-290300
...Florida Panhandle...

CITY           SKY/WX    TMP DP  RH WIND       PRES   REMARKS
MARIANNA       CLEAR     77  70  79 SW6       30.05R
BONIFAY        NOT AVBL
PANAMA CITY NW FAIR      76  73  91 W3        30.05F
TYNDALL AFB    NOT AVBL
TYND DRONE APT MOCLDY    77  75  92 W5        30.06S
DE FUNIAK SPR  FAIR      73  72  98 CALM      30.08R
EGLIN AFB      PTCLDY    77  64  64 W2        30.06S
DESTIN         CLEAR     81  66  60 VRB3      30.06S
HURLBURT       PTCLDY    77  63  61 N2        30.05S
CRESTVIEW      CLEAR     77  64  64 W5        30.08R
PENSACOLA      CLEAR     75  66  73 CALM      30.06S
$$

!ALZ063-066-290300
...South Alabama...

CITY           SKY/WX    TMP DP  RH WIND       PRES   REMARKS
DOTHAN         CLEAR     78  67  68 W6        30.10R
OZARK CAIRNS   CLOUDY    76  70  82 W3        30.06S
FT RUCKER HELI CLOUDY    75  68  78 CALM      30.06R
RUCKER HELI 3  NOT AVBL
RUCKER HELI 2  NOT AVBL
FLORALA APT    CLOUDY    73  69  87 CALM      30.09R
ANDALUSIA      CLOUDY    77  69  76 CALM      30.07R
TROY           CLOUDY    75  69  81 CALM      30.08R
EUFALA         FAIR      72  66  81 CALM      30.05S
MOBILE         CLOUDY    74  67  78 CALM      30.07S
$$

!GAZ120>161-290300
...Southwest and South Central Georgia...

CITY           SKY/WX    TMP DP  RH WIND       PRES   REMARKS
THOMASVILLE    FAIR      75  66  73 CALM      30.05R
BAINBRIDGE     CLEAR     79  66  65 CALM      30.05R
MOODY AFB      NOT AVBL
VALDOSTA       PTCLDY    79  64  60 NE5       30.04R
MOULTRIE       CLEAR     77  64  65 CALM      30.06R
BLAKELY        CLEAR     75  70  83 CALM      30.05S
ALBANY         CLEAR     75  62  64 N3        30.07R
TIFTON         FAIR      77  66  67 CALM      30.06R
FITZGERALD     FAIR      74  66  75 CALM      30.09R
CORDELE          N/A     78  67  68 CALM      30.08R
AMERICUS       FAIR      72  63  73 NE6       30.09R
HOMERVILLE     FAIR      77  66  69 E7        30.07R
$$

!GMZ750-755-770-775-290300
...Coastal and Buoy Obs...

STATION/POSITION TIME  TEMP    WIND        PRES    VSBY  WAVE
                       AIR SEA DIR/SP/G                  HT/PER
                 (UTC) (F)     (DEG/KT/KT) (MB)    (MI)  (FT/S)
KEATON BEACH     0200   79     290/ 12/ 15 1016.7R
CEDAR KEY        0100   80     310/  9/ 12 1016.9R
C TOWER          0200   77     260/  5/  7 1018.2S
APALACHICOLA BUO 0150   78 79  290/  6/  8 1017.2S         1/ 4
PANAMA CITY BUOY 0050   79 81  150/  4/  4 1018.1          2/ 5
MOBILE BUOY      0100   79 79  120/  6/  8 1017.0F
ORANGE BCH AL BU 0150   79 80  130/  4/  4 1017.1R         2/ 5
$$




USA.gov is the U.S. government's official web portal to all federal, state and local government web resources and services.